User: anonymous   Login
Location: Unspecified
(0.0000°N, 0.0000°E)
Time: 04:34:06
(UTC+00:00)
Language:

LEMUR 2 ESPERANZA - Orbit

View from above orbital plane
View from above orbital plane
View from above satellite
View from above satellite

Ground track
Ground track

The orbit is defined by the following mean orbital elements,

1 63352U          26145.38853030 +.00000000 +00000-0 +19481-3 0 00006
2 63352  97.5632 121.0100 0018032 349.1463  10.9376 15.13379996    01
Epoch (UTC): 25 May 2026 09:19:29
Eccentricity: 0.0018032
inclination: 97.5632°
perigee height: 513 km
apogee height: 538 km
right ascension of ascending node: 121.0100°
argument of perigee: 349.1463°
revolutions per day: 15.13379996
mean anomaly at epoch: 10.9376°

The dashed part of the orbit path shows where the satellite is in the earth's shadow,  

DLR